User: anonymous   Login
Location: Ostrava
(49.8330°N, 18.2830°E)
Time: 06:15:02
(UTC+02:00)
Language:

NOAA 19 - Orbit

View from above orbital plane
View from above orbital plane
View from above satellite
View from above satellite

Ground track
Ground track

The orbit data is extracted from the following two-line orbital elements,

1 33591U 09005A   16121.61339550  .00000125  00000-0  93024-4 0  9998
2 33591  99.0358  78.0080 0014015 357.6500   2.4603 14.12066976372422
Epoch (UTC): 30 April 2016 14:43:17
Eccentricity: 0.0014015
inclination: 99.0358°
perigee height: 842 km
apogee height: 862 km
right ascension of ascending node: 78.0080°
argument of perigee: 357.6500°
revolutions per day: 14.12066976
mean anomaly at epoch: 2.4603°
orbit number at epoch: 37242

The dashed part of the orbit path shows where the satellite is in the earth's shadow,  

DLR